Overview Statistics Trail Chart Weather Telemetry Raw packets
 

This is the latest recevied weather packets stored in our database for station/object N9DMT-13. If no packets are shown the sender has not sent any weather packets the latest 10 day(s).

<< 53 54 55 56 57 58 59 >>
Time Temp. Humidity Pressure Rain* Wind** Luminosity Snow
1777504306 11.67° C 38% 984 hPa 0 mm - - -
1777504005 11.67° C 38% 983.8 hPa 0 mm - - -
1777503704 12.22° C 35% 983.7 hPa 0 mm - - -
1777503404 13.33° C 34% 983.8 hPa 0 mm - - -
1777503103 13.33° C 36% 983.6 hPa 0 mm - - -
1777502802 12.78° C 39% 983.7 hPa 0 mm - - -
1777502502 12.78° C 37% 983.5 hPa 0 mm - - -
1777502201 12.22° C 37% 983.7 hPa 0 mm - - -
1777501900 11.67° C 41% 983.7 hPa 0 mm - - -
1777501600 11.67° C 43% 984.1 hPa 0 mm - - -
1777501299 11.67° C 44% 983.8 hPa 0 mm - - -
1777500998 11.67° C 42% 983.9 hPa 0 mm - - -
1777500698 11.67° C 42% 983.7 hPa 0 mm - - -
1777500397 12.22° C 41% 983.9 hPa 0 mm - - -
1777500096 12.78° C 40% 983.7 hPa 0 mm - - -
1777499795 12.78° C 39% 983.8 hPa 0 mm - - -
1777499494 12.22° C 41% 983.7 hPa 0 mm - - -
1777499194 12.22° C 42% 983.8 hPa 0 mm - - -
1777498893 13.33° C 40% 983.9 hPa 0 mm - - -
1777498592 12.78° C 45% 983.6 hPa 0 mm - - -
1777498292 11.67° C 44% 983.8 hPa 0 mm - - -
1777497991 12.22° C 44% 983.7 hPa 0 mm - - -
1777497690 12.22° C 50% 983.9 hPa 0 mm - - -
1777497389 11.11° C 50% 983.7 hPa 0 mm - - -
1777497089 11.11° C 50% 984 hPa 0 mm - - -

* Rain latest hour (hover to see other rain measurements)
** Current wind speed in m/s (hover to see current wind gust speed)